Date,TemperatureHighF,TemperatureAvgF,TemperatureLowF,DewpointHighF,DewpointAvgF,DewpointLowF,HumidityHigh,HumidityAvg,HumidityLow,PressureMaxIn,PressureMinIn,WindSpeedMaxMPH,WindSpeedAvgMPH,GustSpeedMaxMPH,PrecipitationSumIn
2013-1-1,39.0,34.6,31.0,0.0,0.0,0.0,0,0,100,30.27,30.12,0,0,0,0.00
2013-1-2,39.0,33.2,30.0,0.0,0.0,0.0,0,0,100,30.12,29.95,0,0,0,0.01
2013-1-3,39.0,32.6,27.0,0.0,0.0,0.0,0,0,100,29.95,29.85,0,0,1,0.38
2013-1-4,45.0,40.5,35.0,0.0,0.0,0.0,0,0,100,30.05,29.91,7,0,7,0.03
2013-1-5,43.0,40.8,40.0,0.0,0.0,0.0,0,0,100,29.95,29.87,0,0,0,0.07
2013-1-6,43.0,40.3,38.0,0.0,0.0,0.0,0,0,100,29.92,29.71,7,1,7,0.07
2013-1-7,50.0,44.4,40.0,0.0,0.0,0.0,0,0,100,29.91,29.51,11,1,11,0.04
2013-1-8,49.0,43.8,40.0,0.0,0.0,0.0,0,0,100,29.91,29.44,14,2,14,1.31
2013-1-9,48.0,40.5,36.0,0.0,0.0,0.0,0,0,100,29.70,29.40,13,0,13,0.97
2013-1-10,37.0,34.5,32.0,0.0,0.0,0.0,0,0,100,29.88,29.69,3,0,3,0.02
2013-1-11,35.0,31.3,29.0,0.0,0.0,0.0,0,0,100,30.08,29.87,6,0,6,0.00
2013-1-12,34.0,30.2,28.0,0.0,0.0,0.0,0,0,100,30.21,30.08,3,0,3,0.00
2013-1-13,35.0,31.0,29.0,0.0,0.0,0.0,0,0,100,30.27,30.19,0,0,0,0.01
2013-1-14,36.0,31.8,29.0,0.0,0.0,0.0,0,0,100,30.35,30.23,0,0,0,0.00
2013-1-15,37.0,33.8,30.0,0.0,0.0,0.0,0,0,100,30.48,30.34,0,0,0,0.00
2013-1-16,39.0,33.1,30.0,0.0,0.0,0.0,0,0,100,30.46,30.29,0,0,0,0.00
2013-1-17,36.0,33.4,31.0,0.0,0.0,0.0,0,0,100,30.30,30.05,0,0,0,0.01
2013-1-18,36.0,34.0,32.0,0.0,0.0,0.0,0,0,100,30.12,30.01,1,0,1,0.00
2013-1-19,39.0,36.2,34.0,0.0,0.0,0.0,0,0,100,30.16,30.08,0,0,0,0.00
2013-1-20,42.0,37.6,35.0,0.0,0.0,0.0,0,0,100,30.16,30.04,1,0,1,0.00
2013-1-21,37.0,35.6,32.0,0.0,0.0,0.0,0,0,100,30.04,29.88,0,0,0,0.00
2013-1-22,37.0,33.5,30.0,0.0,0.0,0.0,0,0,100,29.90,29.66,0,0,0,0.00
2013-1-23,40.0,38.2,36.0,0.0,0.0,0.0,0,0,100,29.89,29.59,5,0,5,0.31
2013-1-24,41.0,39.2,37.0,0.0,0.0,0.0,0,0,100,29.96,29.80,2,0,2,0.28
2013-1-25,46.0,42.0,37.0,0.0,0.0,0.0,0,0,100,29.81,29.67,5,0,5,0.04
2013-1-26,43.0,39.5,36.0,0.0,0.0,0.0,0,0,100,29.79,29.61,5,0,5,0.15
2013-1-27,41.0,37.8,33.0,0.0,0.0,0.0,0,0,100,29.81,29.72,5,0,5,0.00
2013-1-28,40.0,37.7,35.0,0.0,0.0,0.0,0,0,100,29.85,29.75,0,0,0,0.14
2013-1-29,45.0,41.5,39.0,0.0,0.0,0.0,0,0,100,30.12,29.85,0,0,0,0.16
2013-1-30,47.0,43.9,42.0,0.0,0.0,0.0,0,0,100,30.16,30.08,0,0,0,0.04
2013-1-31,49.0,45.1,44.0,0.0,0.0,0.0,0,0,100,30.17,30.03,10,0,10,0.03